When you browse on this site, cookies collect data to enhance your experience and personalize the content and advertising you see.
Visit our Privacy Policy to learn more. By continuing to use the site, you agree to this use of cookies and data.
  • In Österreich
  • Länderverzeichnis
  • Für 7 Tage
  • Wassertemperatur
  • Wetterkarte
  • News
  • Widgets
  • user-avatar
    Anmelden

    Stündliche Wetter Kakanj

    Heute, 15 Oktober, Dienstag

    Zeit Temperatur Niederschläge Wind Luftdruck Luftfeuchtigkeit
    00:00 +14°C° 0 mm 1 m/S 724 mmHg 67%
    01:00 +14°C° 0 mm 1 m/S 724 mmHg 67%
    02:00 +13°C° 0 mm 1 m/S 724 mmHg 66%
    03:00 +13°C° 0 mm 2 m/S 724 mmHg 66%
    04:00 +12°C° 0 mm 2 m/S 723 mmHg 65%
    05:00 +13°C° 0 mm 1 m/S 723 mmHg 65%
    06:00 +13°C° 0 mm 1 m/S 724 mmHg 66%
    07:00 +13°C° 0 mm 1 m/S 724 mmHg 66%
    08:00 +16°C° 0 mm 1 m/S 724 mmHg 58%
    09:00 +20°C° 0 mm 1 m/S 724 mmHg 50%
    10:00 +22°C° 0 mm 1 m/S 724 mmHg 42%
    11:00 +24°C° 0 mm 2 m/S 724 mmHg 39%
    12:00 +25°C° 0 mm 2 m/S 724 mmHg 35%
    13:00 +26°C° 0 mm 2 m/S 724 mmHg 32%
    14:00 +25°C° 0 mm 2 m/S 723 mmHg 38%
    15:00 +23°C° 0 mm 1 m/S 722 mmHg 43%
    16:00 +22°C° 0 mm 1 m/S 722 mmHg 49%
    17:00 +20°C° 0 mm 1 m/S 722 mmHg 54%
    18:00 +18°C° 0 mm 1 m/S 722 mmHg 59%
    19:00 +15°C° 0 mm 2 m/S 722 mmHg 64%
    20:00 +15°C° 0 mm 2 m/S 722 mmHg 66%
    21:00 +14°C° 0 mm 2 m/S 722 mmHg 69%
    22:00 +14°C° 0 mm 2 m/S 722 mmHg 71%
    23:00 +13°C° 0 mm 2 m/S 722 mmHg 72%

    Morgen, 16 Oktober, Mittwoch

    Zeit Temperatur Niederschläge Wind Luftdruck Luftfeuchtigkeit
    00:00 +13°C° 0 mm 2 m/S 723 mmHg 73%
    01:00 +13°C° 0 mm 2 m/S 723 mmHg 74%
    02:00 +13°C° 0 mm 2 m/S 723 mmHg 75%
    03:00 +12°C° 0 mm 2 m/S 722 mmHg 75%
    04:00 +12°C° 0 mm 2 m/S 722 mmHg 76%
    05:00 +13°C° 0 mm 1 m/S 722 mmHg 76%
    06:00 +13°C° 0 mm 1 m/S 723 mmHg 76%
    07:00 +13°C° 0 mm 1 m/S 723 mmHg 76%
    08:00 +16°C° 0 mm 1 m/S 723 mmHg 69%
    09:00 +20°C° 0 mm 1 m/S 724 mmHg 61%
    10:00 +22°C° 0 mm 1 m/S 724 mmHg 54%
    11:00 +23°C° 0 mm 1 m/S 724 mmHg 52%
    12:00 +24°C° 0 mm 1 m/S 724 mmHg 50%
    13:00 +23°C° 0 mm 0 m/S 724 mmHg 48%
    14:00 +22°C° 0 mm 0 m/S 723 mmHg 53%
    15:00 +21°C° 0 mm 0 m/S 723 mmHg 58%
    16:00 +20°C° 0 mm 0 m/S 723 mmHg 63%
    17:00 +18°C° 0 mm 0 m/S 723 mmHg 67%
    18:00 +17°C° 0 mm 0 m/S 723 mmHg 71%
    19:00 +15°C° 0 mm 0 m/S 723 mmHg 74%
    20:00 +15°C° 0 mm 0 m/S 724 mmHg 76%
    21:00 +15°C° 0 mm 1 m/S 724 mmHg 78%
    22:00 +15°C° 0 mm 1 m/S 724 mmHg 79%
    23:00 +15°C° 0 mm 1 m/S 724 mmHg 81%

    übermorgen, 17 Oktober, Donnerstag

    Zeit Temperatur Niederschläge Wind Luftdruck Luftfeuchtigkeit
    00:00 +14°C° 0 mm 1 m/S 724 mmHg 83%
    01:00 +14°C° 0 mm 1 m/S 724 mmHg 85%
    02:00 +14°C° 0 mm 1 m/S 724 mmHg 86%
    03:00 +14°C° 0 mm 1 m/S 724 mmHg 87%
    04:00 +13°C° 0 mm 1 m/S 724 mmHg 88%
    05:00 +14°C° 0 mm 1 m/S 724 mmHg 87%
    06:00 +13°C° 0 mm 0 m/S 724 mmHg 86%
    07:00 +13°C° 0 mm 0 m/S 724 mmHg 85%
    08:00 +16°C° 0 mm 0 m/S 724 mmHg 76%
    09:00 +19°C° 0 mm 0 m/S 724 mmHg 67%
    10:00 +21°C° 0 mm 0 m/S 725 mmHg 58%
    11:00 +22°C° 0 mm 0 m/S 725 mmHg 55%
    12:00 +23°C° 0 mm 0 m/S 724 mmHg 51%
    13:00 +26°C° 0 mm 1 m/S 724 mmHg 48%
    14:00 +25°C° 0 mm 1 m/S 724 mmHg 53%
    15:00 +24°C° 0 mm 1 m/S 724 mmHg 58%
    16:00 +23°C° 0 mm 1 m/S 724 mmHg 64%
    17:00 +21°C° 0 mm 1 m/S 724 mmHg 70%
    18:00 +17°C° 0 mm 0 m/S 724 mmHg 76%
    19:00 +15°C° 0 mm 0 m/S 724 mmHg 82%
    20:00 +15°C° 0 mm 0 m/S 724 mmHg 82%
    21:00 +14°C° 0 mm 0 m/S 724 mmHg 83%
    22:00 +14°C° 0 mm 0 m/S 724 mmHg 84%
    23:00 +14°C° 0 mm 0 m/S 724 mmHg 85%

    18 Oktober, Freitag

    Zeit Temperatur Niederschläge Wind Luftdruck Luftfeuchtigkeit
    00:00 +13°C° 0 mm 0 m/S 724 mmHg 86%
    01:00 +14°C° 0 mm 1 m/S 724 mmHg 87%
    02:00 +13°C° 0 mm 0 m/S 724 mmHg 87%
    03:00 +13°C° 0 mm 0 m/S 724 mmHg 88%
    04:00 +12°C° 0 mm 0 m/S 724 mmHg 89%
    05:00 +13°C° 0 mm 0 m/S 724 mmHg 88%
    06:00 +14°C° 0 mm 1 m/S 724 mmHg 86%
    07:00 +14°C° 0 mm 1 m/S 724 mmHg 85%
    08:00 +16°C° 0 mm 0 m/S 724 mmHg 76%
    09:00 +19°C° 0 mm 0 m/S 725 mmHg 67%
    10:00 +21°C° 0 mm 0 m/S 725 mmHg 57%
    11:00 +22°C° 0 mm 0 m/S 725 mmHg 53%
    12:00 +25°C° 0 mm 1 m/S 725 mmHg 49%
    13:00 +26°C° 0 mm 1 m/S 724 mmHg 44%
    14:00 +25°C° 0 mm 1 m/S 724 mmHg 50%
    15:00 +24°C° 0 mm 1 m/S 724 mmHg 55%
    16:00 +23°C° 0 mm 1 m/S 724 mmHg 60%
    17:00 +21°C° 0 mm 1 m/S 724 mmHg 67%
    18:00 +17°C° 0 mm 0 m/S 724 mmHg 74%
    19:00 +15°C° 0 mm 0 m/S 724 mmHg 81%
    20:00 +14°C° 0 mm 0 m/S 724 mmHg 82%
    21:00 +15°C° 0 mm 1 m/S 724 mmHg 83%
    22:00 +15°C° 0 mm 1 m/S 724 mmHg 84%
    23:00 +14°C° 0 mm 1 m/S 724 mmHg 85%

    19 Oktober, Samstag

    Zeit Temperatur Niederschläge Wind Luftdruck Luftfeuchtigkeit
    00:00 +14°C° 0 mm 1 m/S 724 mmHg 85%
    01:00 +14°C° 0 mm 1 m/S 724 mmHg 86%
    02:00 +13°C° 0 mm 1 m/S 723 mmHg 85%
    03:00 +13°C° 0 mm 1 m/S 723 mmHg 85%
    04:00 +13°C° 0 mm 1 m/S 723 mmHg 84%
    05:00 +13°C° 0 mm 1 m/S 724 mmHg 83%
    06:00 +13°C° 0 mm 1 m/S 724 mmHg 81%
    07:00 +14°C° 0 mm 1 m/S 724 mmHg 79%
    08:00 +16°C° 0 mm 1 m/S 724 mmHg 70%
    09:00 +20°C° 0 mm 1 m/S 724 mmHg 60%
    10:00 +23°C° 0 mm 1 m/S 724 mmHg 51%
    11:00 +23°C° 0 mm 1 m/S 724 mmHg 48%
    12:00 +24°C° 0 mm 1 m/S 724 mmHg 45%
    13:00 +25°C° 0 mm 1 m/S 724 mmHg 41%
    14:00 +24°C° 0 mm 1 m/S 724 mmHg 46%
    15:00 +23°C° 0 mm 1 m/S 724 mmHg 51%
    16:00 +22°C° 0 mm 1 m/S 723 mmHg 56%
    17:00 +20°C° 0 mm 1 m/S 723 mmHg 61%
    18:00 +18°C° 0 mm 1 m/S 723 mmHg 67%
    19:00 +15°C° 0 mm 1 m/S 723 mmHg 72%
    20:00 +15°C° 0 mm 1 m/S 723 mmHg 74%
    21:00 +14°C° 0 mm 1 m/S 723 mmHg 77%
    22:00 +14°C° 0 mm 1 m/S 723 mmHg 79%
    23:00 +13°C° 0 mm 1 m/S 723 mmHg 80%

    20 Oktober, Sonntag

    Zeit Temperatur Niederschläge Wind Luftdruck Luftfeuchtigkeit
    00:00 +13°C° 0 mm 1 m/S 723 mmHg 80%
    01:00 +13°C° 0 mm 1 m/S 723 mmHg 80%
    02:00 +12°C° 0 mm 2 m/S 723 mmHg 80%
    03:00 +12°C° 0 mm 2 m/S 723 mmHg 80%
    04:00 +12°C° 0 mm 2 m/S 723 mmHg 80%
    05:00 +12°C° 0 mm 2 m/S 723 mmHg 79%
    06:00 +12°C° 0 mm 2 m/S 723 mmHg 79%
    07:00 +13°C° 0 mm 2 m/S 723 mmHg 78%
    08:00 +15°C° 0 mm 2 m/S 723 mmHg 69%
    09:00 +18°C° 0 mm 2 m/S 723 mmHg 60%
    10:00 +20°C° 0 mm 2 m/S 723 mmHg 51%
    11:00 +21°C° 0 mm 2 m/S 723 mmHg 49%
    12:00 +22°C° 0 mm 3 m/S 723 mmHg 47%
    13:00 +24°C° 0 mm 3 m/S 723 mmHg 45%
    14:00 +23°C° 0 mm 2 m/S 723 mmHg 51%
    15:00 +21°C° 0 mm 2 m/S 723 mmHg 57%
    16:00 +20°C° 0 mm 2 m/S 723 mmHg 63%
    17:00 +18°C° 0 mm 2 m/S 723 mmHg 70%
    18:00 +17°C° 0 mm 2 m/S 723 mmHg 77%
    19:00 +15°C° 0 mm 2 m/S 723 mmHg 84%
    20:00 +14°C° 0 mm 2 m/S 723 mmHg 85%
    21:00 +14°C° 0 mm 2 m/S 724 mmHg 87%
    22:00 +14°C° 0 mm 2 m/S 724 mmHg 88%
    23:00 +13°C° 0 mm 2 m/S 724 mmHg 87%
    Mehr zeigen